Weather History for Dothan, AL

Change the Weather History Date:

Monday, October 7, 2013

  Actual Average Record
Temperature  
Mean Temperature 70 °F 70 °F  
Max Temperature 76 °F 82 °F 92 °F (1951)
Min Temperature 63 °F 58 °F 44 °F (1964)
Degree Days  
Heating Degree Days 0 1  
Month to date heating degree days 0 2  
Since 1 July heating degree days 0 4  
Cooling Degree Days 5 6  
Month to date cooling degree days 70 47  
Year to date cooling degree days 2208 2275  
Growing Degree Days 20 (Base 50)    
Moisture  
Dew Point 66 °F    
Average Humidity 86    
Maximum Humidity 100    
Minimum Humidity 65    
Precipitation  
Precipitation 0.29 in 0.11 in 1.96 in (1931)
Month to date precipitation 0.35 0.76  
Year to date precipitation 66.56 42.74  
Sea Level Pressure  
Sea Level Pressure 29.88 in    
Wind  
Wind Speed 5 mph (North)    
Max Wind Speed 13 mph    
Max Gust Speed 23 mph    
Visibility 9 miles    
Events Rain    
T = Trace of Precipitation, MM = Missing Value Source: NWS Daily Summary

Daily Weather History Graph

Daily Weather History Graph

Search for Another Location

Airport:

Trip Planner

Search our weather history database for the weather conditions in past years. The results will help you decide how hot, cold, wet, or windy it might be!

Date:

Astronomy

Oct. 07, 2013 Rise Set
Actual Time 6:39 AM CDT 6:19 PM CDT
Civil Twilight 6:15 AM CDT 6:43 PM CDT
Nautical Twilight 5:47 AM CDT 7:11 PM CDT
Astronomical Twilight 5:18 AM CDT 7:39 PM CDT
Moon 9:16 AM CDT (10/7) 8:16 PM CDT (10/7)
Length of Visible Light 12h 28m
Length of Day
11h 39m
Waxing Crescent, 9% of the Moon is Illuminated
Oct 7
Waxing Crescent
Oct 11
First Quarter
Oct 18
Full
Oct 26
Last Quarter
Nov 3
New

Hourly Weather History & Observations

Time (CDT) Temp. Dew Point Humidity Pressure Visibility Wind Dir Wind Speed Gust Speed Precip Events Conditions
12:53 AM 72.0 °F 71.1 °F 97% 29.87 in 8.0 mi Calm Calm - 0.01 in Rain Light Rain
1:53 AM 72.0 °F 71.1 °F 97% 29.85 in 10.0 mi Calm Calm - 0.00 in Rain Light Rain
2:11 AM 71.6 °F 71.6 °F 100% 29.86 in 10.0 mi ENE 3.5 mph - N/A   Overcast
2:51 AM 71.6 °F 71.6 °F 100% 29.85 in 10.0 mi Calm Calm - N/A   Mostly Cloudy
2:53 AM 72.0 °F 71.1 °F 97% 29.83 in 10.0 mi ENE 3.5 mph - N/A   Mostly Cloudy
3:16 AM 71.6 °F 71.6 °F 100% 29.84 in 10.0 mi Calm Calm - N/A   Overcast
3:53 AM 72.0 °F 71.1 °F 97% 29.83 in 10.0 mi Calm Calm - 0.00 in   Overcast
4:27 AM 71.6 °F 71.6 °F 100% 29.85 in 4.0 mi SE 3.5 mph - 0.08 in Rain Heavy Rain
4:33 AM 71.6 °F 71.6 °F 100% 29.85 in 3.0 mi ESE 3.5 mph - 0.12 in Rain Heavy Rain
4:53 AM 72.0 °F 71.1 °F 97% 29.84 in 10.0 mi Calm Calm - 0.13 in Rain Light Rain
5:11 AM 71.6 °F 71.6 °F 100% 29.86 in 3.0 mi Calm Calm - 0.03 in Rain Heavy Rain
5:20 AM 71.6 °F 71.6 °F 100% 29.86 in 2.5 mi NNE 3.5 mph - 0.06 in Rain Rain
5:25 AM 71.6 °F 71.6 °F 100% 29.86 in 3.0 mi North 4.6 mph - 0.07 in Rain Light Rain
5:41 AM 68.0 °F 66.2 °F 94% 29.87 in 5.0 mi NNW 10.4 mph 23.0 mph 0.13 in Rain Rain
5:53 AM 66.9 °F 66.0 °F 97% 29.86 in 6.0 mi NNW 11.5 mph - 0.14 in Rain Light Rain
6:38 AM 66.2 °F 64.4 °F 94% 29.88 in 10.0 mi NNW 12.7 mph - 0.02 in   Overcast
6:53 AM 66.0 °F 64.9 °F 96% 29.88 in 10.0 mi North 8.1 mph - 0.02 in   Overcast
7:53 AM 64.9 °F 64.0 °F 97% 29.89 in 10.0 mi NNW 10.4 mph - N/A   Overcast
8:53 AM 66.0 °F 64.0 °F 93% 29.90 in 10.0 mi North 10.4 mph - N/A   Overcast
9:53 AM 68.0 °F 64.9 °F 90% 29.90 in 10.0 mi North 9.2 mph - N/A   Overcast
10:53 AM 70.0 °F 66.0 °F 87% 29.90 in 10.0 mi North 8.1 mph - N/A   Overcast
11:53 AM 70.0 °F 66.0 °F 87% 29.90 in 10.0 mi North 8.1 mph - N/A   Overcast
12:30 PM 71.6 °F 64.4 °F 78% 29.91 in 10.0 mi NNW 10.4 mph - N/A   Overcast
12:53 PM 72.0 °F 66.0 °F 81% 29.89 in 10.0 mi NNW 9.2 mph - N/A   Overcast
1:53 PM 73.9 °F 66.0 °F 76% 29.87 in 10.0 mi NNW 11.5 mph - N/A   Overcast
2:32 PM 73.4 °F 66.2 °F 78% 29.87 in 10.0 mi North 8.1 mph - N/A   Overcast
2:53 PM 73.9 °F 64.9 °F 73% 29.86 in 10.0 mi North 10.4 mph - N/A   Overcast
3:53 PM 75.9 °F 66.0 °F 71% 29.86 in 10.0 mi North 8.1 mph - N/A   Mostly Cloudy
4:53 PM 73.9 °F 64.9 °F 73% 29.87 in 10.0 mi North 6.9 mph - N/A   Overcast
5:00 PM 75.2 °F 64.4 °F 69% 29.88 in 10.0 mi North 6.9 mph - N/A   Overcast
5:20 PM 75.2 °F 62.6 °F 65% 29.89 in 10.0 mi NNW 11.5 mph - N/A   Overcast
5:53 PM 73.0 °F 63.0 °F 71% 29.88 in 10.0 mi NNW 8.1 mph - N/A   Overcast
6:22 PM 71.6 °F 62.6 °F 73% 29.90 in 10.0 mi NNW 8.1 mph - N/A   Mostly Cloudy
6:53 PM 71.1 °F 60.1 °F 68% 29.90 in 10.0 mi NNW 9.2 mph - N/A   Overcast
7:53 PM 70.0 °F 57.9 °F 65% 29.93 in 10.0 mi NNW 10.4 mph - N/A   Overcast
8:53 PM 66.9 °F 57.0 °F 70% 29.95 in 10.0 mi NNW 9.2 mph - N/A   Mostly Cloudy
9:53 PM 66.9 °F 57.0 °F 70% 29.97 in 10.0 mi North 6.9 mph - N/A   Overcast
10:53 PM 64.9 °F 57.0 °F 75% 29.97 in 10.0 mi North 8.1 mph - N/A   Overcast
11:53 PM 64.0 °F 55.9 °F 75% 29.96 in 10.0 mi North 6.9 mph - N/A   Mostly Cloudy